When you browse on this site, cookies collect data to enhance your experience and personalize the content and advertising you see.
Visit our Privacy Policy to learn more. By continuing to use the site, you agree to this use of cookies and data.
  • în România
  • Lista ţărilor
  • Pe 7 zile
  • Temperatura apei
  • Meteo pe hartă
  • Widget-uri
  • user-avatar
    Intrare

    Meteo pe oră la Chełmża

    Astăzi, 20 Septembrie, Vineri

    Timp Temperatura Precipitaţii Vânt Presiune Umiditate
    00:00 +7°C° 0 mm 3 m/s 761 mmHg 79%
    01:00 +7°C° 0 mm 3 m/s 761 mmHg 79%
    02:00 +7°C° 0 mm 3 m/s 761 mmHg 79%
    03:00 +7°C° 0 mm 2 m/s 760 mmHg 78%
    04:00 +6°C° 0 mm 2 m/s 760 mmHg 78%
    05:00 +7°C° 0 mm 2 m/s 760 mmHg 75%
    06:00 +7°C° 0 mm 3 m/s 760 mmHg 72%
    07:00 +8°C° 0 mm 3 m/s 760 mmHg 69%
    08:00 +10°C° 0 mm 3 m/s 760 mmHg 62%
    09:00 +12°C° 0 mm 3 m/s 761 mmHg 55%
    10:00 +13°C° 0 mm 3 m/s 761 mmHg 47%
    11:00 +14°C° 0 mm 3 m/s 761 mmHg 45%
    12:00 +15°C° 0 mm 4 m/s 760 mmHg 43%
    13:00 +15°C° 0 mm 4 m/s 760 mmHg 40%
    14:00 +14°C° 0 mm 4 m/s 760 mmHg 47%
    15:00 +14°C° 0 mm 4 m/s 760 mmHg 54%
    16:00 +13°C° 0 mm 4 m/s 759 mmHg 61%
    17:00 +12°C° 0 mm 3 m/s 759 mmHg 64%
    18:00 +12°C° 0 mm 3 m/s 759 mmHg 67%
    19:00 +12°C° 0 mm 3 m/s 759 mmHg 70%
    20:00 +12°C° 0 mm 3 m/s 759 mmHg 73%
    21:00 +12°C° 0 mm 4 m/s 759 mmHg 77%
    22:00 +12°C° 0 mm 4 m/s 759 mmHg 80%
    23:00 +11°C° 0 mm 4 m/s 758 mmHg 84%

    Mâine, 21 Septembrie, Sâmbătă

    Timp Temperatura Precipitaţii Vânt Presiune Umiditate
    00:00 +10°C° 0 mm 4 m/s 758 mmHg 88%
    01:00 +10°C° 0 mm 4 m/s 758 mmHg 92%
    02:00 +10°C° 0 mm 4 m/s 758 mmHg 92%
    03:00 +10°C° 0 mm 4 m/s 758 mmHg 92%
    04:00 +10°C° 0 mm 4 m/s 758 mmHg 92%
    05:00 +11°C° 0 mm 4 m/s 758 mmHg 90%
    06:00 +11°C° 0 mm 4 m/s 758 mmHg 89%
    07:00 +12°C° 0 mm 4 m/s 758 mmHg 87%
    08:00 +12°C° 0 mm 4 m/s 758 mmHg 85%
    09:00 +12°C° 0 mm 4 m/s 758 mmHg 84%
    10:00 +13°C° 0 mm 4 m/s 758 mmHg 82%
    11:00 +13°C° 0 mm 4 m/s 758 mmHg 79%
    12:00 +14°C° 0 mm 4 m/s 758 mmHg 76%
    13:00 +14°C° 0 mm 4 m/s 758 mmHg 73%
    14:00 +15°C° 0 mm 4 m/s 758 mmHg 72%
    15:00 +16°C° 0 mm 3 m/s 758 mmHg 70%
    16:00 +16°C° 0 mm 3 m/s 757 mmHg 69%
    17:00 +15°C° 0 mm 2 m/s 757 mmHg 75%
    18:00 +14°C° 0 mm 2 m/s 757 mmHg 81%
    19:00 +12°C° 0 mm 1 m/s 757 mmHg 87%
    20:00 +12°C° 0 mm 1 m/s 757 mmHg 88%
    21:00 +12°C° 0 mm 1 m/s 757 mmHg 89%
    22:00 +11°C° 0 mm 1 m/s 757 mmHg 90%
    23:00 +11°C° 0 mm 1 m/s 757 mmHg 91%

    Poimâine, 22 Septembrie, Duminică

    Timp Temperatura Precipitaţii Vânt Presiune Umiditate
    00:00 +11°C° 0 mm 1 m/s 757 mmHg 91%
    01:00 +10°C° 0 mm 2 m/s 757 mmHg 92%
    02:00 +10°C° 0 mm 2 m/s 757 mmHg 92%
    03:00 +11°C° 0 mm 1 m/s 757 mmHg 92%
    04:00 +10°C° 0 mm 1 m/s 756 mmHg 92%
    05:00 +11°C° 0 mm 1 m/s 756 mmHg 90%
    06:00 +12°C° 0 mm 1 m/s 756 mmHg 88%
    07:00 +12°C° 0 mm 1 m/s 756 mmHg 86%
    08:00 +14°C° 0 mm 2 m/s 756 mmHg 77%
    09:00 +17°C° 0 mm 2 m/s 756 mmHg 68%
    10:00 +19°C° 0 mm 2 m/s 756 mmHg 59%
    11:00 +20°C° 0 mm 2 m/s 756 mmHg 54%
    12:00 +21°C° 0 mm 2 m/s 755 mmHg 50%
    13:00 +23°C° 0 mm 2 m/s 755 mmHg 45%
    14:00 +23°C° 0 mm 2 m/s 755 mmHg 45%
    15:00 +23°C° 0 mm 1 m/s 754 mmHg 46%
    16:00 +23°C° 0 mm 1 m/s 754 mmHg 46%
    17:00 +21°C° 0 mm 1 m/s 753 mmHg 52%
    18:00 +19°C° 0 mm 1 m/s 753 mmHg 57%
    19:00 +16°C° 0 mm 1 m/s 753 mmHg 62%
    20:00 +16°C° 0 mm 1 m/s 753 mmHg 63%
    21:00 +15°C° 0 mm 1 m/s 753 mmHg 63%
    22:00 +14°C° 0 mm 2 m/s 753 mmHg 64%
    23:00 +14°C° 0 mm 2 m/s 753 mmHg 65%

    23 Septembrie, Luni

    Timp Temperatura Precipitaţii Vânt Presiune Umiditate
    00:00 +14°C° 0 mm 2 m/s 753 mmHg 65%
    01:00 +13°C° 0 mm 2 m/s 752 mmHg 66%
    02:00 +13°C° 0 mm 2 m/s 752 mmHg 67%
    03:00 +13°C° 0 mm 2 m/s 752 mmHg 68%
    04:00 +12°C° 0 mm 2 m/s 752 mmHg 69%
    05:00 +12°C° 0 mm 3 m/s 751 mmHg 70%
    06:00 +12°C° 0 mm 3 m/s 751 mmHg 71%
    07:00 +12°C° 0 mm 3 m/s 751 mmHg 72%
    08:00 +14°C° 0 mm 4 m/s 751 mmHg 65%
    09:00 +17°C° 0 mm 4 m/s 751 mmHg 57%
    10:00 +19°C° 0 mm 5 m/s 751 mmHg 50%
    11:00 +20°C° 0 mm 5 m/s 750 mmHg 47%
    12:00 +21°C° 0 mm 5 m/s 750 mmHg 43%
    13:00 +22°C° 0 mm 5 m/s 750 mmHg 40%
    14:00 +22°C° 0 mm 4 m/s 749 mmHg 42%
    15:00 +22°C° 0 mm 4 m/s 749 mmHg 44%
    16:00 +21°C° 0 mm 3 m/s 749 mmHg 45%
    17:00 +19°C° 0 mm 3 m/s 749 mmHg 52%
    18:00 +17°C° 0 mm 2 m/s 749 mmHg 58%
    19:00 +15°C° 0 mm 2 m/s 749 mmHg 64%
    20:00 +15°C° 0 mm 2 m/s 749 mmHg 68%
    21:00 +14°C° 0 mm 2 m/s 750 mmHg 72%
    22:00 +13°C° 0 mm 1 m/s 750 mmHg 76%
    23:00 +13°C° 0 mm 1 m/s 750 mmHg 80%

    24 Septembrie, Marţi

    Timp Temperatura Precipitaţii Vânt Presiune Umiditate
    00:00 +12°C° 0 mm 1 m/s 750 mmHg 84%
    01:00 +12°C° 0 mm 1 m/s 750 mmHg 88%
    02:00 +12°C° 0 mm 1 m/s 750 mmHg 89%
    03:00 +12°C° 0 mm 1 m/s 750 mmHg 91%
    04:00 +11°C° 0 mm 1 m/s 750 mmHg 92%
    05:00 +12°C° 0 mm 1 m/s 751 mmHg 90%
    06:00 +12°C° 0 mm 1 m/s 751 mmHg 88%
    07:00 +13°C° 0 mm 1 m/s 751 mmHg 85%
    08:00 +15°C° 0 mm 1 m/s 752 mmHg 77%
    09:00 +18°C° 0 mm 1 m/s 752 mmHg 69%
    10:00 +19°C° 0 mm 1 m/s 752 mmHg 61%
    11:00 +20°C° 0 mm 1 m/s 752 mmHg 57%
    12:00 +21°C° 0 mm 1 m/s 752 mmHg 53%
    13:00 +22°C° 0 mm 1 m/s 752 mmHg 49%
    14:00 +22°C° 0 mm 1 m/s 752 mmHg 49%
    15:00 +22°C° 0 mm 1 m/s 752 mmHg 48%
    16:00 +22°C° 0 mm 1 m/s 752 mmHg 48%
    17:00 +21°C° 0 mm 1 m/s 752 mmHg 54%
    18:00 +18°C° 0 mm 2 m/s 752 mmHg 60%
    19:00 +16°C° 0 mm 2 m/s 752 mmHg 66%
    20:00 +16°C° 0 mm 2 m/s 752 mmHg 69%
    21:00 +15°C° 0 mm 2 m/s 752 mmHg 72%
    22:00 +15°C° 0 mm 2 m/s 752 mmHg 75%
    23:00 +14°C° 0 mm 2 m/s 752 mmHg 77%

    25 Septembrie, Miercuri

    Timp Temperatura Precipitaţii Vânt Presiune Umiditate
    00:00 +13°C° 0 mm 3 m/s 751 mmHg 79%
    01:00 +13°C° 0 mm 3 m/s 751 mmHg 80%
    02:00 +13°C° 0 mm 3 m/s 751 mmHg 80%
    03:00 +13°C° 0 mm 3 m/s 750 mmHg 79%
    04:00 +14°C° 0 mm 2 m/s 750 mmHg 78%
    05:00 +13°C° 0.1 mm 3 m/s 750 mmHg 79%
    06:00 +13°C° 0.1 mm 3 m/s 750 mmHg 80%
    07:00 +13°C° 0.1 mm 3 m/s 750 mmHg 81%
    08:00 +14°C° 0.2 mm 3 m/s 750 mmHg 80%
    09:00 +14°C° 0.2 mm 3 m/s 749 mmHg 79%
    10:00 +16°C° 0.2 mm 3 m/s 749 mmHg 78%
    11:00 +17°C° 0.1 mm 3 m/s 749 mmHg 75%
    12:00 +18°C° 0.1 mm 4 m/s 749 mmHg 72%
    13:00 +19°C° 0.1 mm 4 m/s 748 mmHg 68%
    14:00 +18°C° 0.3 mm 3 m/s 748 mmHg 71%
    15:00 +18°C° 0.3 mm 3 m/s 747 mmHg 74%
    16:00 +18°C° 0.3 mm 2 m/s 747 mmHg 76%
    17:00 +17°C° 0.4 mm 2 m/s 747 mmHg 80%
    18:00 +16°C° 0.4 mm 2 m/s 747 mmHg 83%
    19:00 +16°C° 0.4 mm 2 m/s 747 mmHg 86%
    20:00 +16°C° 0.5 mm 2 m/s 746 mmHg 88%
    21:00 +15°C° 0.5 mm 1 m/s 746 mmHg 90%
    22:00 +15°C° 0.5 mm 1 m/s 746 mmHg 92%
    23:00 +15°C° 0.2 mm 1 m/s 746 mmHg 92%
    Arată mai mult